Weather History for Cecil Field, FL

Change the Weather History Date:

Tuesday, February 12, 2013

  Actual Average (KJAX) Record (KJAX)
Temperature  
Mean Temperature 68 °F 56 °F  
Max Temperature 82 °F 68 °F 83 °F (1965)
Min Temperature 53 °F 44 °F 24 °F (2012)
Degree Days  
Heating Degree Days 0 10  
Month to date heating degree days 125  
Since 1 July heating degree days 1001  
Cooling Degree Days 2 1  
Month to date cooling degree days 7  
Year to date cooling degree days 18  
Growing Degree Days 18 (Base 50)    
Moisture  
Dew Point 63 °F    
Average Humidity 89    
Maximum Humidity 100    
Minimum Humidity 54    
Precipitation  
Precipitation 0.00 in 0.11 in 1.64 in (1897)
Month to date precipitation 1.29  
Year to date precipitation 4.59  
Snow  
Snow 0.00 in 0.00 in 0.00 in (2002)
Month to date snowfall 0.0  
Since 1 July snowfall T  
Snow Depth -    
Sea Level Pressure  
Sea Level Pressure 30.01 in    
Wind  
Wind Speed 3 mph (SSW)    
Max Wind Speed 15 mph    
Max Gust Speed 20 mph    
Visibility 5 miles    
Events Fog    
T = Trace of Precipitation, MM = Missing Value Source: NWS Daily Summary

Daily Weather History Graph

Daily Weather History Graph

Search for Another Location

Airport:

Trip Planner

Search our weather history database for the weather conditions in past years. The results will help you decide how hot, cold, wet, or windy it might be!

Date:

Astronomy

Feb. 12, 2013 Rise Set
Actual Time 7:09 AM EST 6:13 PM EST
Civil Twilight 6:45 AM EST 6:38 PM EST
Nautical Twilight 6:17 AM EST 7:06 PM EST
Astronomical Twilight 5:49 AM EST 7:34 PM EST
Moon 8:21 AM EST (2/12) 8:55 PM EST (2/12)
Length of Visible Light 11h 53m
Length of Day
11h 03m
Waxing Crescent, 7% of the Moon is Illuminated
Feb 12
Waxing Crescent
Feb 17
First Quarter
Feb 25
Full
Mar 4
Last Quarter
Mar 11
New

Hourly Weather History & Observations

Time (EST) Temp. Heat Index Dew Point Humidity Pressure Visibility Wind Dir Wind Speed Gust Speed Precip Events Conditions
12:15 AM 60.8 °F - 60.8 °F 100% 30.09 in 3.0 mi Calm Calm - N/A   Clear
12:35 AM 59.0 °F - 59.0 °F 100% 30.09 in 4.0 mi Calm Calm - N/A   Clear
12:55 AM 59.0 °F - 59.0 °F 100% 30.09 in 3.0 mi Calm Calm - N/A   Clear
1:15 AM 55.4 °F - 55.4 °F 100% 30.09 in 0.2 mi Calm Calm - N/A Fog Fog
1:35 AM 57.2 °F - 57.2 °F 100% 30.08 in 2.5 mi Calm Calm - N/A   Clear
1:55 AM 53.6 °F - 53.6 °F 100% 30.08 in 1.0 mi Calm Calm - N/A   Clear
2:15 AM 55.4 °F - 55.4 °F 100% 30.08 in 0.8 mi Calm Calm - N/A   Mostly Cloudy
2:35 AM 55.4 °F - 55.4 °F 100% 30.08 in 0.2 mi Calm Calm - N/A Fog Fog
2:55 AM 57.2 °F - 57.2 °F 100% 30.07 in 2.5 mi Calm Calm - N/A   Overcast
3:15 AM 57.2 °F - 57.2 °F 100% 30.07 in 2.0 mi Calm Calm - N/A   Overcast
3:35 AM 59.0 °F - 59.0 °F 100% 30.07 in 2.5 mi Calm Calm - N/A   Overcast
3:55 AM 60.8 °F - 60.8 °F 100% 30.06 in 2.5 mi Calm Calm - N/A   Overcast
4:15 AM 62.6 °F - 62.6 °F 100% 30.06 in 2.5 mi Calm Calm - N/A   Overcast
4:35 AM 62.6 °F - 62.6 °F 100% 30.05 in 1.0 mi Calm Calm - N/A   Overcast
4:55 AM 62.6 °F - 62.6 °F 100% 30.06 in 0.2 mi Calm Calm - N/A Fog Fog
5:15 AM 62.6 °F - 62.6 °F 100% 30.06 in 0.2 mi Calm Calm - N/A Fog Fog
5:35 AM 62.6 °F - 62.6 °F 100% 30.06 in 0.2 mi Calm Calm - N/A Fog Fog
5:55 AM 62.6 °F - 62.6 °F 100% 30.06 in 0.2 mi Calm Calm - N/A Fog Fog
6:15 AM 64.4 °F - 64.4 °F 100% 30.06 in 0.5 mi Calm Calm - N/A Fog Fog
6:35 AM 64.4 °F - 64.4 °F 100% 30.06 in 0.5 mi South 3.5 mph - N/A Fog Fog
6:50 AM 64.4 °F - 64.4 °F 100% 30.06 in 0.5 mi Calm Calm - N/A Fog Fog
7:50 AM 64.4 °F - 64.4 °F 100% 30.08 in 1.5 mi SW 6.9 mph - N/A   Overcast
8:50 AM 66.2 °F - 66.2 °F 100% 30.08 in 4.0 mi SW 5.8 mph - N/A   Overcast
10:20 AM 69.8 °F - 66.2 °F 88% 30.09 in 7.0 mi SW 10.4 mph - N/A   Overcast
11:50 AM 73.4 °F - 66.2 °F 78% 30.05 in 7.0 mi South 12.7 mph - N/A   Mostly Cloudy
12:50 PM 77.0 °F - 66.2 °F 69% 30.03 in 7.0 mi South 11.5 mph - N/A   Mostly Cloudy
1:50 PM 77.0 °F - 66.2 °F 69% 30.00 in 7.0 mi South 11.5 mph - N/A   Mostly Cloudy
2:50 PM 80.6 °F 82.3 °F 64.4 °F 58% 29.95 in 7.0 mi SSW 15.0 mph - N/A   Scattered Clouds
3:50 PM 82.4 °F 83.9 °F 64.4 °F 54% 29.93 in 7.0 mi South 11.5 mph - N/A   Scattered Clouds
4:50 PM 80.6 °F 82.3 °F 64.4 °F 58% 29.92 in 7.0 mi South 10.4 mph - N/A   Scattered Clouds
5:50 PM 78.8 °F - 62.6 °F 57% 29.92 in 7.0 mi SSW 8.1 mph - N/A   Partly Cloudy
6:50 PM 73.4 °F - 62.6 °F 69% 29.91 in 7.0 mi SSW 4.6 mph - N/A   Clear
7:50 PM 71.6 °F - 64.4 °F 78% 29.91 in 10.0 mi South 4.6 mph - N/A   Clear
8:15 PM 71.6 °F - 64.4 °F 78% 29.92 in 10.0 mi SSW 6.9 mph - N/A   Clear
8:35 PM 69.8 °F - 64.4 °F 83% 29.92 in 10.0 mi South 4.6 mph - N/A   Clear
8:55 PM 69.8 °F - 64.4 °F 83% 29.92 in 10.0 mi SSW 6.9 mph - N/A   Clear
9:15 PM 69.8 °F - 66.2 °F 88% 29.91 in 10.0 mi South 10.4 mph - N/A   Clear
9:35 PM 71.6 °F - 66.2 °F 83% 29.92 in 10.0 mi SSW 11.5 mph 19.6 mph N/A   Clear
9:55 PM 71.6 °F - 66.2 °F 83% 29.92 in 10.0 mi South 10.4 mph 18.4 mph N/A   Clear
10:15 PM 71.6 °F - 66.2 °F 83% 29.92 in 10.0 mi South 10.4 mph - N/A   Clear
10:35 PM 71.6 °F - 66.2 °F 83% 29.91 in 10.0 mi South 10.4 mph 16.1 mph N/A   Clear
10:55 PM 71.6 °F - 66.2 °F 83% 29.91 in 10.0 mi South 8.1 mph - N/A   Clear
11:15 PM 71.6 °F - 66.2 °F 83% 29.90 in 10.0 mi South 12.7 mph 16.1 mph N/A   Clear
11:35 PM 69.8 °F - 66.2 °F 88% 29.88 in 10.0 mi South 11.5 mph 16.1 mph N/A   Clear
11:55 PM 69.8 °F - 66.2 °F 88% 29.89 in 10.0 mi South 10.4 mph 16.1 mph N/A   Clear